CCA125 ZBAA-RKSI

Flight info

Callsign CCA125
Flight time 1h 20m
Altitude 29100
Route MUGLO W34 VAPGU W100 ORAVA W201 UNSEK A326 DONVO G597 AGAVO/N0451F292 Y644 REBIT
Aircraft A321/M-SDE3FGHIRWY/LB1

Departure

Time 2026-05-01 07:55
Airport Beijing Capital International Airport (ZBAA)

Arrival

Time 2026-05-01 09:15
Airport Incheon International Airport (RKSI)
Time Latitude Longitude Altitude Speed Heading
2026-05-01 07:45 40.07214 116.60505 125 ft 0 kts 83°
2026-05-01 07:45 40.07213 116.60492 126 ft 3 kts 83°
2026-05-01 07:45 40.07210 116.60466 127 ft 3 kts 83°
2026-05-01 07:45 40.07208 116.60440 116 ft 3 kts 83°
2026-05-01 07:46 40.07206 116.60415 116 ft 3 kts 82°
2026-05-01 07:46 40.07201 116.60392 119 ft 3 kts 50°
2026-05-01 07:46 40.07169 116.60377 120 ft 2 kts 354°
2026-05-01 07:47 40.07165 116.60377 121 ft 0 kts 353°
2026-05-01 07:48 40.07176 116.60375 120 ft 4 kts 353°
2026-05-01 07:49 40.07226 116.60366 122 ft 10 kts 342°
2026-05-01 07:49 40.07235 116.60117 124 ft 19 kts 263°
2026-05-01 07:49 40.07249 116.59981 122 ft 10 kts 331°
2026-05-01 07:50 40.07301 116.59977 119 ft 7 kts 354°
2026-05-01 07:50 40.07387 116.59961 121 ft 7 kts 352°
2026-05-01 07:50 40.07448 116.59952 124 ft 12 kts 354°
2026-05-01 07:51 40.07563 116.59936 122 ft 21 kts 353°
2026-05-01 07:51 40.07734 116.59907 122 ft 29 kts 353°
2026-05-01 07:51 40.07953 116.59875 123 ft 34 kts 354°
2026-05-01 07:52 40.08484 116.59796 122 ft 34 kts 351°
2026-05-01 07:52 40.08656 116.59763 122 ft 17 kts 353°
2026-05-01 07:52 40.08765 116.59746 121 ft 15 kts 353°
2026-05-01 07:53 40.08889 116.59644 122 ft 11 kts 262°
2026-05-01 07:53 40.08879 116.59554 123 ft 9 kts 262°
2026-05-01 07:53 40.08854 116.59495 124 ft 7 kts 192°
2026-05-01 07:53 40.08809 116.59505 122 ft 9 kts 172°
2026-05-01 07:54 40.07886 116.59649 122 ft 126 kts 173°
2026-05-01 07:55 40.04638 116.60158 1456 ft 160 kts 172°
2026-05-01 07:55 40.02425 116.60506 2506 ft 161 kts 171°
2026-05-01 07:56 39.98849 116.61072 3471 ft 197 kts 171°
2026-05-01 07:56 39.95849 116.61552 3763 ft 241 kts 172°
2026-05-01 07:57 39.94127 116.61825 4147 ft 255 kts 172°
2026-05-01 07:57 39.90513 116.62375 5417 ft 267 kts 174°
2026-05-01 07:58 39.86766 116.62944 6654 ft 276 kts 175°
2026-05-01 07:58 39.82905 116.63541 7954 ft 282 kts 175°
2026-05-01 07:59 39.79002 116.64138 9288 ft 284 kts 176°
2026-05-01 07:59 39.75004 116.64749 10176 ft 302 kts 176°
2026-05-01 08:00 39.65692 116.66154 10888 ft 363 kts 175°
2026-05-01 08:01 39.58125 116.68024 12410 ft 374 kts 170°
2026-05-01 08:01 39.55576 116.68783 12877 ft 379 kts 166°
2026-05-01 08:01 39.53101 116.70023 13361 ft 385 kts 156°
2026-05-01 08:02 39.48373 116.73433 14265 ft 391 kts 153°
2026-05-01 08:02 39.45980 116.75145 14671 ft 394 kts 154°
2026-05-01 08:03 39.41135 116.78571 15509 ft 399 kts 154°
2026-05-01 08:03 39.38724 116.80278 15902 ft 402 kts 154°
2026-05-01 08:03 39.33766 116.83797 16682 ft 406 kts 152°
2026-05-01 08:04 39.29992 116.89231 17332 ft 421 kts 114°
2026-05-01 08:04 39.28472 116.96527 17987 ft 427 kts 104°
2026-05-01 08:05 39.27024 117.04002 18589 ft 432 kts 105°
2026-05-01 08:05 39.26280 117.07765 18868 ft 434 kts 105°
2026-05-01 08:05 39.25528 117.11546 19152 ft 436 kts 105°
2026-05-01 08:06 39.24010 117.19173 19700 ft 442 kts 104°
2026-05-01 08:06 39.22481 117.26887 20261 ft 447 kts 104°
2026-05-01 08:07 39.20938 117.34688 20850 ft 451 kts 105°
2026-05-01 08:07 39.19368 117.42568 21445 ft 456 kts 105°
2026-05-01 08:08 39.18576 117.46541 21752 ft 459 kts 105°
2026-05-01 08:08 39.16973 117.54542 22350 ft 464 kts 105°
2026-05-01 08:09 39.15340 117.62624 22938 ft 468 kts 105°
2026-05-01 08:09 39.14515 117.66699 23224 ft 471 kts 105°
2026-05-01 08:09 39.13691 117.70790 23498 ft 473 kts 105°
2026-05-01 08:10 39.12025 117.79034 23940 ft 478 kts 105°
2026-05-01 08:10 39.10329 117.87357 24360 ft 483 kts 105°
2026-05-01 08:11 39.08617 117.95710 24756 ft 488 kts 105°
2026-05-01 08:11 39.06876 118.04200 25166 ft 493 kts 105°
2026-05-01 08:12 39.05377 118.12866 25569 ft 499 kts 101°
2026-05-01 08:12 39.04725 118.17256 25761 ft 501 kts 100°
2026-05-01 08:12 39.03435 118.26116 26152 ft 506 kts 101°
2026-05-01 08:13 39.02758 118.30568 26347 ft 509 kts 101°
2026-05-01 08:13 39.02284 118.33588 26471 ft 510 kts 102°
2026-05-01 08:13 39.00838 118.42496 26823 ft 515 kts 102°
2026-05-01 08:14 39.00096 118.47004 26994 ft 517 kts 102°
2026-05-01 08:14 38.99354 118.51529 27157 ft 519 kts 102°
2026-05-01 08:14 38.98614 118.56076 27323 ft 521 kts 102°
2026-05-01 08:14 38.97875 118.60640 27463 ft 523 kts 102°
2026-05-01 08:15 38.97132 118.65224 27608 ft 524 kts 102°
2026-05-01 08:15 38.95637 118.74417 27902 ft 527 kts 102°
2026-05-01 08:15 38.94883 118.79032 28041 ft 529 kts 102°
2026-05-01 08:16 38.94124 118.83657 28186 ft 529 kts 102°
2026-05-01 08:16 38.93361 118.88285 28355 ft 530 kts 102°
2026-05-01 08:16 38.92596 118.92910 28518 ft 530 kts 102°
2026-05-01 08:16 38.91829 118.97549 28688 ft 531 kts 102°
2026-05-01 08:17 38.91061 119.02187 28820 ft 532 kts 102°
2026-05-01 08:17 38.90287 119.06830 28984 ft 532 kts 102°
2026-05-01 08:17 38.89513 119.11446 29032 ft 525 kts 102°
2026-05-01 08:18 38.87983 119.20541 29019 ft 520 kts 102°
2026-05-01 08:19 38.84924 119.38655 29029 ft 520 kts 102°
2026-05-01 08:19 38.83376 119.47718 29028 ft 520 kts 102°
2026-05-01 08:20 38.81832 119.56711 29037 ft 520 kts 102°
2026-05-01 08:20 38.80274 119.65766 29020 ft 520 kts 102°
2026-05-01 08:21 38.78705 119.74825 29020 ft 520 kts 102°
2026-05-01 08:21 38.77135 119.83877 29027 ft 521 kts 102°
2026-05-01 08:22 38.75610 119.92950 29019 ft 521 kts 101°
2026-05-01 08:22 38.74120 120.02034 29020 ft 521 kts 101°
2026-05-01 08:23 38.72200 120.10973 29028 ft 521 kts 114°
2026-05-01 08:23 38.68487 120.18864 29003 ft 516 kts 133°
2026-05-01 08:24 38.63501 120.25370 29011 ft 514 kts 134°
2026-05-01 08:24 38.61443 120.29123 29012 ft 519 kts 120°
2026-05-01 08:24 38.59963 120.33334 29013 ft 521 kts 109°
2026-05-01 08:25 38.58285 120.42329 29006 ft 521 kts 101°
2026-05-01 08:25 38.56770 120.51392 29008 ft 522 kts 101°
2026-05-01 08:26 38.55238 120.60455 29006 ft 522 kts 101°
2026-05-01 08:26 38.53758 120.69543 29008 ft 522 kts 101°
2026-05-01 08:27 38.52301 120.78639 29038 ft 523 kts 101°
2026-05-01 08:27 38.50830 120.87738 29027 ft 524 kts 101°
2026-05-01 08:28 38.49329 120.96842 29014 ft 524 kts 100°
2026-05-01 08:28 38.47812 121.05946 29011 ft 525 kts 101°
2026-05-01 08:29 38.46286 121.15061 29008 ft 525 kts 101°
2026-05-01 08:29 38.44802 121.24127 29001 ft 526 kts 100°
2026-05-01 08:30 38.43340 121.33274 28999 ft 526 kts 99°
2026-05-01 08:30 38.41868 121.42423 28997 ft 527 kts 100°
2026-05-01 08:31 38.40377 121.51561 28999 ft 527 kts 100°
2026-05-01 08:31 38.38848 121.60698 28991 ft 527 kts 100°
2026-05-01 08:32 38.37309 121.69826 28993 ft 527 kts 100°
2026-05-01 08:32 38.35774 121.78963 28987 ft 528 kts 100°
2026-05-01 08:33 38.34231 121.88110 28987 ft 528 kts 100°
2026-05-01 08:33 38.32679 121.97251 28994 ft 529 kts 100°
2026-05-01 08:34 38.31112 122.06401 28997 ft 529 kts 100°
2026-05-01 08:34 38.29544 122.15554 29003 ft 529 kts 100°
2026-05-01 08:35 38.27965 122.24708 28998 ft 529 kts 100°
2026-05-01 08:35 38.26526 122.33822 29030 ft 529 kts 97°
2026-05-01 08:36 38.24591 122.42916 29007 ft 533 kts 112°
2026-05-01 08:36 38.22910 122.47043 29000 ft 532 kts 123°
2026-05-01 08:36 38.20684 122.50858 28980 ft 529 kts 134°
2026-05-01 08:37 38.15526 122.57489 28989 ft 527 kts 138°
2026-05-01 08:37 38.10406 122.64081 28999 ft 528 kts 137°
2026-05-01 08:38 38.05276 122.70763 28996 ft 529 kts 137°
2026-05-01 08:38 38.00148 122.77469 28998 ft 530 kts 137°
2026-05-01 08:39 37.95000 122.84152 29000 ft 530 kts 137°
2026-05-01 08:39 37.89835 122.90813 29003 ft 530 kts 137°
2026-05-01 08:40 37.82075 123.00795 29005 ft 530 kts 138°
2026-05-01 08:40 37.76907 123.07450 29019 ft 530 kts 138°
2026-05-01 08:41 37.71738 123.14089 29012 ft 530 kts 138°
2026-05-01 08:41 37.66566 123.20709 29014 ft 530 kts 138°
2026-05-01 08:42 37.61380 123.27326 29008 ft 531 kts 138°
2026-05-01 08:42 37.56265 123.34043 29006 ft 533 kts 131°
2026-05-01 08:43 37.51795 123.41521 28997 ft 535 kts 129°
2026-05-01 08:43 37.47369 123.48957 29023 ft 534 kts 129°
2026-05-01 08:44 37.42910 123.56418 29036 ft 533 kts 129°
2026-05-01 08:44 37.38455 123.63853 29029 ft 532 kts 129°
2026-05-01 08:45 37.33997 123.71281 29029 ft 532 kts 129°
2026-05-01 08:45 37.29533 123.78706 29017 ft 533 kts 129°
2026-05-01 08:46 37.25055 123.86124 29021 ft 533 kts 129°
2026-05-01 08:46 37.20685 123.93651 28863 ft 535 kts 122°
2026-05-01 08:47 37.18888 123.97749 28608 ft 541 kts 115°
2026-05-01 08:47 37.17528 124.02156 28345 ft 543 kts 103°
2026-05-01 08:47 37.16906 124.06790 28084 ft 536 kts 88°
2026-05-01 08:47 37.17006 124.11434 27826 ft 532 kts 82°
2026-05-01 08:48 37.17211 124.16079 27005 ft 537 kts 82°
2026-05-01 08:48 37.17419 124.20698 25956 ft 524 kts 82°
2026-05-01 08:48 37.17609 124.25221 24533 ft 515 kts 82°
2026-05-01 08:48 37.17759 124.29666 23427 ft 505 kts 83°
2026-05-01 08:49 37.17862 124.33986 23015 ft 488 kts 83°
2026-05-01 08:49 37.17941 124.38189 22892 ft 478 kts 83°
2026-05-01 08:49 37.18022 124.42304 22935 ft 479 kts 83°
2026-05-01 08:49 37.18114 124.46474 22938 ft 478 kts 83°
2026-05-01 08:50 37.18213 124.50639 22928 ft 478 kts 83°
2026-05-01 08:50 37.18316 124.54799 22932 ft 478 kts 83°
2026-05-01 08:50 37.18417 124.58966 22931 ft 478 kts 83°
2026-05-01 08:50 37.18514 124.63129 22931 ft 478 kts 83°
2026-05-01 08:51 37.18607 124.67297 22927 ft 478 kts 83°
2026-05-01 08:51 37.18695 124.71461 22926 ft 478 kts 83°
2026-05-01 08:51 37.18781 124.75632 22937 ft 478 kts 83°
2026-05-01 08:51 37.18865 124.79798 22936 ft 478 kts 83°
2026-05-01 08:52 37.18950 124.83964 22936 ft 478 kts 83°
2026-05-01 08:52 37.19036 124.88136 22936 ft 478 kts 84°
2026-05-01 08:52 37.19117 124.92306 22934 ft 478 kts 84°
2026-05-01 08:52 37.19194 124.96476 22934 ft 478 kts 84°
2026-05-01 08:53 37.19275 125.00646 22931 ft 479 kts 83°
2026-05-01 08:53 37.19357 125.04817 22954 ft 479 kts 84°
2026-05-01 08:53 37.19438 125.08987 22953 ft 478 kts 84°
2026-05-01 08:53 37.19515 125.13155 22950 ft 478 kts 84°
2026-05-01 08:54 37.19585 125.17294 22916 ft 472 kts 84°
2026-05-01 08:54 37.19652 125.21402 22912 ft 471 kts 84°
2026-05-01 08:54 37.19718 125.25510 22026 ft 474 kts 84°
2026-05-01 08:54 37.19786 125.29646 21163 ft 473 kts 84°
2026-05-01 08:55 37.19859 125.33705 20954 ft 456 kts 84°
2026-05-01 08:55 37.19923 125.37627 20572 ft 445 kts 84°
2026-05-01 08:55 37.19991 125.41470 20012 ft 437 kts 84°
2026-05-01 08:55 37.20060 125.45255 19452 ft 431 kts 84°
2026-05-01 08:56 37.20133 125.48989 18874 ft 425 kts 84°
2026-05-01 08:56 37.20207 125.52671 18311 ft 420 kts 84°
2026-05-01 08:56 37.20280 125.56352 17230 ft 425 kts 84°
2026-05-01 08:56 37.20357 125.60036 16638 ft 418 kts 84°
2026-05-01 08:57 37.20432 125.63632 16257 ft 407 kts 84°
2026-05-01 08:57 37.20504 125.67155 15951 ft 402 kts 84°
2026-05-01 08:57 37.20575 125.70652 15911 ft 401 kts 84°
2026-05-01 08:57 37.20647 125.74150 15921 ft 401 kts 84°
2026-05-01 08:58 37.20714 125.77654 15916 ft 402 kts 84°
2026-05-01 08:58 37.20769 125.81154 15868 ft 400 kts 84°
2026-05-01 08:58 37.20822 125.84634 15617 ft 398 kts 84°
2026-05-01 08:58 37.20875 125.88098 15031 ft 396 kts 84°
2026-05-01 08:59 37.20925 125.91541 14437 ft 393 kts 84°
2026-05-01 08:59 37.20974 125.94951 13958 ft 389 kts 84°
2026-05-01 08:59 37.21021 125.98322 13459 ft 385 kts 84°
2026-05-01 08:59 37.21069 126.01663 12927 ft 381 kts 84°
2026-05-01 09:00 37.21119 126.04927 12417 ft 378 kts 84°
2026-05-01 09:00 37.21173 126.08245 11674 ft 370 kts 84°
2026-05-01 09:00 37.21227 126.11435 10606 ft 363 kts 84°
2026-05-01 09:00 37.21285 126.14546 10099 ft 346 kts 84°
2026-05-01 09:01 37.21333 126.17418 9974 ft 322 kts 84°
2026-05-01 09:01 37.21371 126.20141 9792 ft 305 kts 84°
2026-05-01 09:01 37.21400 126.22766 9481 ft 298 kts 84°
2026-05-01 09:01 37.21430 126.25356 9076 ft 295 kts 84°
2026-05-01 09:02 37.21465 126.27914 8502 ft 292 kts 84°
2026-05-01 09:02 37.21511 126.30454 7909 ft 290 kts 84°
2026-05-01 09:02 37.21567 126.32977 7305 ft 289 kts 84°
2026-05-01 09:02 37.21638 126.35486 6721 ft 287 kts 84°
2026-05-01 09:03 37.21693 126.37172 6332 ft 286 kts 85°
2026-05-01 09:03 37.21162 126.40398 5678 ft 291 kts 119°
2026-05-01 09:03 37.20351 126.41726 5404 ft 290 kts 137°
2026-05-01 09:03 37.17992 126.43189 4849 ft 283 kts 174°
2026-05-01 09:04 37.16699 126.43351 4561 ft 282 kts 179°
2026-05-01 09:04 37.14717 126.43464 4141 ft 280 kts 181°
2026-05-01 09:04 37.12804 126.43561 3775 ft 278 kts 181°
2026-05-01 09:04 37.10883 126.43653 3399 ft 275 kts 181°
2026-05-01 09:05 37.08978 126.43750 3030 ft 273 kts 181°
2026-05-01 09:05 37.07088 126.43856 2673 ft 270 kts 180°
2026-05-01 09:05 37.05265 126.44424 2605 ft 276 kts 153°
2026-05-01 09:05 37.03818 126.46006 2606 ft 281 kts 125°
2026-05-01 09:06 37.03096 126.48257 2607 ft 281 kts 96°
2026-05-01 09:06 37.03271 126.50646 2604 ft 275 kts 66°
2026-05-01 09:06 37.04256 126.52634 2605 ft 268 kts 44°
2026-05-01 09:06 37.05526 126.54335 2605 ft 269 kts 41°
2026-05-01 09:07 37.06835 126.56011 2599 ft 269 kts 41°
2026-05-01 09:07 37.08142 126.57678 2597 ft 268 kts 41°
2026-05-01 09:07 37.09453 126.59339 2595 ft 268 kts 41°
2026-05-01 09:07 37.10782 126.60968 2594 ft 266 kts 35°
2026-05-01 09:08 37.12390 126.61968 2595 ft 256 kts
2026-05-01 09:08 37.14145 126.62023 2595 ft 252 kts 352°
2026-05-01 09:08 37.15889 126.61846 2591 ft 251 kts 351°
2026-05-01 09:08 37.17628 126.61653 2591 ft 251 kts 351°
2026-05-01 09:09 37.19363 126.61460 2593 ft 250 kts 351°
2026-05-01 09:09 37.21101 126.61269 2593 ft 251 kts 351°
2026-05-01 09:09 37.22842 126.61075 2594 ft 251 kts 351°
2026-05-01 09:09 37.24514 126.60799 2584 ft 232 kts 341°
2026-05-01 09:10 37.25887 126.59954 2604 ft 212 kts 322°
2026-05-01 09:10 37.27064 126.58913 2589 ft 204 kts 322°
2026-05-01 09:10 37.28214 126.57896 2588 ft 201 kts 322°
2026-05-01 09:10 37.29353 126.56889 2590 ft 200 kts 322°
2026-05-01 09:11 37.30491 126.55882 2603 ft 200 kts 323°
2026-05-01 09:11 37.31628 126.54876 2605 ft 199 kts 322°
2026-05-01 09:11 37.32757 126.53876 2603 ft 196 kts 322°
2026-05-01 09:11 37.33833 126.52925 2471 ft 181 kts 322°
2026-05-01 09:12 37.34808 126.52063 2253 ft 167 kts 321°
2026-05-01 09:12 37.35719 126.51257 2041 ft 154 kts 319°
2026-05-01 09:12 37.36577 126.50496 1851 ft 149 kts 319°
2026-05-01 09:12 37.37403 126.49762 1669 ft 143 kts 319°
2026-05-01 09:13 37.38210 126.49045 1469 ft 142 kts 318°
2026-05-01 09:13 37.39013 126.48333 1281 ft 140 kts 318°
2026-05-01 09:13 37.39808 126.47626 1090 ft 141 kts 318°
2026-05-01 09:13 37.40619 126.46906 906 ft 143 kts 319°
2026-05-01 09:14 37.41431 126.46184 721 ft 142 kts 319°
2026-05-01 09:14 37.42230 126.45476 534 ft 140 kts 318°
2026-05-01 09:14 37.43019 126.44775 351 ft 138 kts 317°
2026-05-01 09:14 37.43801 126.44080 162 ft 139 kts 318°
2026-05-01 09:15 37.44576 126.43377 33 ft 130 kts 323°
2026-05-01 09:15 37.45139 126.42884 33 ft 72 kts 326°
2026-05-01 09:15 37.45411 126.42661 33 ft 24 kts 341°
2026-05-01 09:15 37.45514 126.42640 33 ft 10 kts 353°
2026-05-01 09:16 37.45586 126.42631 33 ft 11 kts 357°
2026-05-01 09:16 37.45669 126.42622 32 ft 12 kts 354°
2026-05-01 09:16 37.45751 126.42601 33 ft 12 kts 340°
2026-05-01 09:17 37.45915 126.42466 33 ft 17 kts 324°
2026-05-01 09:17 37.46013 126.42381 33 ft 17 kts 334°
2026-05-01 09:17 37.46154 126.42540 33 ft 13 kts 54°
2026-05-01 09:18 37.46203 126.42628 33 ft 12 kts 54°
2026-05-01 09:18 37.46229 126.42674 33 ft 0 kts 54°
2026-05-01 09:19 37.46233 126.42680 33 ft 2 kts 54°
2026-05-01 09:19 37.46244 126.42703 32 ft 5 kts 62°
2026-05-01 09:20 37.46182 126.42802 32 ft 14 kts 144°
2026-05-01 09:20 37.46021 126.42945 32 ft 13 kts 144°
2026-05-01 09:21 37.45887 126.43065 33 ft 11 kts 145°
2026-05-01 09:21 37.45830 126.43116 33 ft 10 kts 145°
2026-05-01 09:21 37.45662 126.43266 33 ft 20 kts 144°
2026-05-01 09:22 37.45453 126.43452 33 ft 17 kts 144°
2026-05-01 09:22 37.45269 126.43616 33 ft 19 kts 144°
2026-05-01 09:23 37.45144 126.43727 32 ft 22 kts 145°
2026-05-01 09:23 37.44988 126.43876 33 ft 11 kts 120°
2026-05-01 09:24 37.45043 126.44024 33 ft 9 kts 54°
2026-05-01 09:24 37.45075 126.44081 33 ft 8 kts 54°
2026-05-01 09:24 37.45072 126.44190 32 ft 8 kts 140°
2026-05-01 09:25 37.45099 126.44318 33 ft 9 kts 55°
2026-05-01 09:25 37.45161 126.44464 33 ft 9 kts 123°
2026-05-01 09:26 37.45114 126.44513 32 ft 5 kts 142°
2026-05-01 09:26 37.45100 126.44526 32 ft 0 kts 141°